TimeCST,TemperatureF,Dew PointF,Humidity,Sea Level PressureIn,VisibilityMPH,Wind Direction,Wind SpeedMPH,Gust SpeedMPH,PrecipitationIn,Events,Conditions,WindDirDegrees,DateUTC
12:55 AM,21.9,10.9,63,30.27,10.0,Calm,Calm,-,N/A,,Overcast,0,2013-01-25 06:55:00
1:02 AM,21.2,10.4,63,30.20,10.0,ESE,4.6,-,N/A,,Overcast,110,2013-01-25 07:02:00
1:55 AM,21.9,10.9,63,30.25,10.0,Calm,Calm,-,N/A,,Overcast,0,2013-01-25 07:55:00
2:55 AM,21.9,10.9,63,30.23,10.0,SSE,3.5,-,N/A,,Overcast,160,2013-01-25 08:55:00
3:55 AM,21.9,10.9,63,30.18,10.0,SSE,6.9,-,N/A,,Overcast,160,2013-01-25 09:55:00
4:55 AM,21.9,10.9,63,30.18,10.0,Calm,Calm,-,N/A,,Overcast,0,2013-01-25 10:55:00
5:55 AM,21.9,10.9,63,30.19,10.0,WNW,4.6,-,N/A,,Overcast,290,2013-01-25 11:55:00
6:55 AM,21.9,10.9,63,30.19,10.0,Calm,Calm,-,N/A,,Overcast,0,2013-01-25 12:55:00
7:12 AM,19.4,10.4,68,30.13,10.0,Calm,Calm,-,N/A,,Scattered Clouds,0,2013-01-25 13:12:00
7:55 AM,19.0,10.0,68,30.21,10.0,West,3.5,-,N/A,,Clear,280,2013-01-25 13:55:00
8:55 AM,23.0,10.9,60,30.21,10.0,West,6.9,-,N/A,,Clear,270,2013-01-25 14:55:00
9:55 AM,27.0,10.9,51,30.20,10.0,West,9.2,-,N/A,,Clear,270,2013-01-25 15:55:00
10:55 AM,32.0,10.9,42,30.20,10.0,West,12.7,17.3,N/A,,Clear,280,2013-01-25 16:55:00
11:55 AM,36.0,12.0,37,30.17,10.0,West,11.5,-,N/A,,Clear,270,2013-01-25 17:55:00
12:55 PM,37.9,14.0,38,30.16,10.0,West,11.5,-,N/A,,Clear,260,2013-01-25 18:55:00
1:55 PM,42.1,16.0,35,30.14,10.0,West,15.0,21.9,N/A,,Clear,280,2013-01-25 19:55:00
2:55 PM,45.0,17.1,33,30.13,10.0,WNW,10.4,18.4,N/A,,Clear,300,2013-01-25 20:55:00
3:55 PM,46.0,18.0,33,30.14,10.0,West,12.7,-,N/A,,Clear,280,2013-01-25 21:55:00
4:55 PM,42.1,17.1,37,30.15,10.0,West,8.1,-,N/A,,Clear,270,2013-01-25 22:55:00
5:55 PM,39.0,17.1,41,30.18,10.0,West,5.8,-,N/A,,Clear,260,2013-01-25 23:55:00
6:55 PM,35.1,17.1,48,30.19,10.0,West,5.8,-,N/A,,Clear,280,2013-01-26 00:55:00
7:55 PM,35.1,18.0,50,30.20,10.0,West,6.9,-,N/A,,Clear,280,2013-01-26 01:55:00
8:55 PM,34.0,19.9,56,30.22,10.0,WNW,8.1,-,N/A,,Clear,300,2013-01-26 02:55:00
9:55 PM,32.0,19.9,61,30.25,10.0,NNW,5.8,-,N/A,,Clear,330,2013-01-26 03:55:00
10:55 PM,28.9,19.9,69,30.27,10.0,North,5.8,-,N/A,,Clear,350,2013-01-26 04:55:00
11:55 PM,28.0,19.9,72,30.29,10.0,NNW,5.8,-,N/A,,Clear,340,2013-01-26 05:55:00